KUIPER-00074

Last updated on Sat Aug 16 2025 00:02:05 GMT+0000 (Coordinated Universal Time)

1 64821U 25151F 25227.46545745 .00023160 00000+0 66394-3 0 9995 2 64821 51.8772 142.0092 0004532 256.2636 103.7846 15.35781890 4634
UTC large
Height (km)
Speed (km/s)
/
Latitude / Longitude
Inclination (degrees)
Orbital Period (minutes)
Azimuth
Elevation
Range (km)
Doppler Factor

Next 0 passes for location: London (51.5072 / 0.1276)

Sorry there are no passes over London.